FW4298 Weather Reports


Display with metric or nautical units.
time (UTC)temp
F
wind
direction
speed
MPH
gust
MPH
rain 1hr
in
rain 24hr
in
rain mn
in
humidity
%
barometer
mb
20260505032929 73 173 5.0 12.0 0.00 0.00 0.00 83 1010.3
20260505032653 73 190 6.0 12.0 0.00 0.00 0.00 83 1010.3
20260505031928 73 161 5.0 14.0 0.00 0.00 0.00 82 1010.2
20260505031430 74 175 6.0 14.0 0.00 0.00 0.00 82 1010.2
20260505030929 74 187 7.0 17.0 0.00 0.00 0.00 82 1010.3
20260505030429 74 168 7.0 17.0 0.00 0.00 0.00 81 1010.3
20260505025929 74 174 7.0 17.0 0.00 0.00 0.00 81 1010.3
20260505025430 74 182 6.0 14.0 0.00 0.00 0.00 81 1010.3
20260505024929 74 170 6.0 14.0 0.00 0.00 0.00 81 1010.2
20260505024429 74 196 6.0 16.0 0.00 0.00 0.00 80 1010.3
20260505023929 74 165 6.0 16.0 0.00 0.00 0.00 80 1010.4
20260505023429 74 182 5.0 10.0 0.00 0.00 0.00 80 1010.4
20260505022928 74 188 5.0 11.0 0.00 0.00 0.00 79 1010.4
20260505022429 74 174 5.0 15.0 0.00 0.00 0.00 79 1010.4
20260505021924 75 175 5.0 15.0 0.00 0.00 0.00 79 1010.4
20260505021909 75 201 6.0 15.0 0.00 0.00 0.00 78 1010.3
20260505020915 75 202 6.0 15.0 0.00 0.00 0.00 78 1010.4
20260505020415 75 161 5.0 11.0 0.00 0.00 0.00 77 1010.2
20260505015913 75 200 5.0 12.0 0.00 0.00 0.00 77 1010.0
20260505015412 75 182 4.0 12.0 0.00 0.00 0.00 76 1010.1
20260505014913 75 157 4.0 9.0 0.00 0.00 0.00 76 1010.2
20260505014413 75 164 4.0 9.0 0.00 0.00 0.00 75 1010.2
20260505013912 75 150 4.0 14.0 0.00 0.00 0.00 75 1010.2
20260505013412 75 140 4.0 14.0 0.00 0.00 0.00 75 1010.2
20260505012909 76 177 5.0 14.0 0.00 0.00 0.00 75 1010.1
20260505012409 76 170 5.0 14.0 0.00 0.00 0.00 74 1010.1
20260505011909 76 157 5.0 11.0 0.00 0.00 0.00 74 1010.0
20260505011407 76 184 4.0 10.0 0.00 0.00 0.00 74 1010.1
20260505010907 76 200 5.0 10.0 0.00 0.00 0.00 74 1010.1
20260505010644 76 183 5.0 11.0 0.00 0.00 0.00 73 1010.1
20260505005906 77 157 6.0 14.0 0.00 0.00 0.00 73 1010.1
20260505005407 77 202 6.0 16.0 0.00 0.00 0.00 72 1010.1
20260505005130 77 183 6.0 16.0 0.00 0.00 0.00 72 1010.1
20260505004403 77 192 6.0 12.0 0.00 0.00 0.00 72 1010.2
20260505003901 78 178 8.0 18.0 0.00 0.00 0.00 71 1010.2
20260505003402 78 152 9.0 18.0 0.00 0.00 0.00 71 1010.2
20260505002900 78 140 7.0 18.0 0.00 0.00 0.00 71 1010.1
20260505002401 78 204 5.0 18.0 0.00 0.00 0.00 71 1010.2
20260505002125 78 173 7.0 16.0 0.00 0.00 0.00 71 1010.1
20260505001401 79 167 8.0 19.0 0.00 0.00 0.00 70 1010.1
20260505000902 79 164 8.0 19.0 0.00 0.00 0.00 70 1010.0
20260505000401 79 177 9.0 18.0 0.00 0.00 0.00 69 1009.9
20260504235902 80 148 8.0 20.0 0.00 0.00 0.00 69 1009.9
20260504235402 80 182 8.0 20.0 0.00 0.00 0.00 68 1010.0
20260504234902 80 173 8.0 19.0 0.00 0.00 0.00 68 1010.1
20260504234401 80 196 9.0 20.0 0.00 0.00 0.00 69 1010.1
20260504233901 80 170 9.0 20.0 0.00 0.00 0.00 68 1010.2
20260504233629 80 165 8.0 17.0 0.00 0.00 0.00 68 1010.2
20260504232901 80 193 8.0 17.0 0.00 0.00 0.00 68 1010.2
20260504232401 81 157 8.0 17.0 0.00 0.00 0.00 68 1010.2
20260504231901 81 195 8.0 18.0 0.00 0.00 0.00 67 1010.4
20260504231626 81 184 8.0 18.0 0.00 0.00 0.00 67 1010.4
20260504230852 81 148 8.0 19.0 0.00 0.00 0.00 67 1010.3
20260504230346 82 174 8.0 19.0 0.00 0.00 0.00 67 1010.4
20260504225840 82 144 8.0 18.0 0.00 0.00 0.00 66 1010.4
20260504225611 82 180 8.0 18.0 0.00 0.00 0.00 66 1010.4
20260504224834 82 166 9.0 18.0 0.00 0.00 0.00 66 1010.5
20260504224334 82 178 8.0 17.0 0.00 0.00 0.00 65 1010.4
20260504223835 83 138 7.0 16.0 0.00 0.00 0.00 66 1010.5
20260504223333 82 175 8.0 17.0 0.00 0.00 0.00 65 1010.6
20260504222832 82 160 10.0 19.0 0.00 0.00 0.00 65 1010.6
20260504222332 82 174 9.0 19.0 0.00 0.00 0.00 65 1010.7
20260504222110 82 149 8.0 19.0 0.00 0.00 0.00 65 1010.6
20260504221332 83 217 9.0 19.0 0.00 0.00 0.00 65 1010.7
20260504220831 83 147 9.0 15.0 0.00 0.00 0.00 64 1010.7
20260504220330 83 150 8.0 15.0 0.00 0.00 0.00 65 1010.8
20260504215829 83 168 9.0 17.0 0.00 0.00 0.00 65 1010.7
20260504215329 83 198 7.0 17.0 0.00 0.00 0.00 65 1010.8
20260504214829 82 157 8.0 21.0 0.00 0.00 0.00 65 1010.9
20260504214330 83 144 9.0 21.0 0.00 0.00 0.00 65 1010.9
20260504213828 83 178 8.0 22.0 0.00 0.00 0.00 65 1011.0
20260504213330 82 109 8.0 22.0 0.00 0.00 0.00 66 1011.1
20260504212829 83 167 8.0 19.0 0.00 0.00 0.00 65 1011.0
20260504212328 83 187 9.0 19.0 0.00 0.00 0.00 65 1011.2
20260504211822 82 169 9.0 19.0 0.00 0.00 0.00 65 1011.3
20260504211320 82 182 10.0 19.0 0.00 0.00 0.00 66 1011.5
20260504210820 82 186 9.0 19.0 0.00 0.00 0.00 64 1011.5
20260504210544 82 172 8.0 17.0 0.00 0.00 0.00 65 1011.7
20260504205820 82 130 9.0 17.0 0.00 0.00 0.00 67 1011.6
20260504205320 82 169 9.0 18.0 0.00 0.00 0.00 67 1011.8
20260504204820 82 171 9.0 18.0 0.00 0.00 0.00 66 1011.8
20260504204320 81 192 9.0 16.0 0.00 0.00 0.00 67 1012.0
20260504203820 81 169 8.0 17.0 0.00 0.00 0.00 68 1012.1
20260504203319 81 125 9.0 20.0 0.00 0.00 0.00 65 1012.1
20260504202818 82 153 9.0 20.0 0.00 0.00 0.00 65 1012.1
20260504202318 82 165 8.0 16.0 0.00 0.00 0.00 66 1012.1
20260504201819 81 163 7.0 16.0 0.00 0.00 0.00 67 1012.3
20260504201559 81 192 7.0 17.0 0.00 0.00 0.00 67 1012.4
20260504200818 81 211 7.0 17.0 0.00 0.00 0.00 66 1012.5
20260504200316 81 152 8.0 16.0 0.00 0.00 0.00 66 1012.6
20260504195816 81 113 8.0 19.0 0.00 0.00 0.00 67 1012.8
20260504195310 81 201 7.0 19.0 0.00 0.00 0.00 67 1012.7
20260504195027 80 176 8.0 20.0 0.00 0.00 0.00 66 1012.9
20260504194304 81 182 7.0 20.0 0.00 0.00 0.00 66 1013.2
20260504193804 81 189 8.0 17.0 0.00 0.00 0.00 67 1013.2
20260504193532 80 174 8.0 17.0 0.00 0.00 0.00 67 1013.4
20260504192804 80 217 7.0 17.0 0.00 0.00 0.00 68 1013.3
20260504192304 80 180 8.0 17.0 0.00 0.00 0.00 69 1013.4
20260504191805 79 178 8.0 18.0 0.00 0.00 0.00 69 1013.6
20260504191526 79 172 9.0 18.0 0.00 0.00 0.00 69 1013.7
20260504190805 79 186 8.0 17.0 0.00 0.00 0.00 68 1013.7
20260504190304 79 168 8.0 18.0 0.00 0.00 0.00 69 1013.9
20260504185804 78 179 7.0 18.0 0.00 0.00 0.00 69 1014.0
20260504185304 78 182 6.0 15.0 0.00 0.00 0.00 69 1014.1
20260504184804 78 198 7.0 18.0 0.00 0.00 0.00 69 1014.0
20260504184304 78 197 7.0 18.0 0.00 0.00 0.00 70 1014.1
20260504184028 78 240 7.0 15.0 0.00 0.00 0.00 69 1014.0
20260504183304 78 204 7.0 13.0 0.00 0.00 0.00 70 1014.1
20260504182804 78 167 8.0 18.0 0.00 0.00 0.00 70 1014.2
20260504182304 78 217 8.0 18.0 0.00 0.00 0.00 70 1014.4
20260504182255 77 163 9.0 16.0 0.00 0.00 0.00 70 1014.6
20260504181305 77 207 9.0 20.0 0.00 0.00 0.00 71 1014.5
20260504180804 77 172 8.0 20.0 0.00 0.00 0.00 71 1014.7
20260504180305 77 162 8.0 16.0 0.00 0.00 0.00 72 1014.7
20260504180040 77 179 9.0 18.0 0.00 0.00 0.00 71 1014.7
20260504175527 76 192 9.0 18.0 0.00 0.00 0.00 72 1014.8
20260504174804 76 173 8.0 17.0 0.00 0.00 0.00 74 1014.8
20260504174305 75 163 8.0 17.0 0.00 0.00 0.00 74 1014.8
20260504174027 75 190 9.0 20.0 0.00 0.00 0.00 74 1015.0
20260504173746 74 196 9.0 21.0 0.00 0.00 0.00 76 1015.0
20260504172803 74 190 10.0 21.0 0.00 0.00 0.00 74 1015.2
20260504172304 74 178 10.0 20.0 0.00 0.00 0.00 75 1015.2
20260504172020 74 180 8.0 20.0 0.00 0.00 0.00 75 1015.4
20260504171252 74 150 7.0 17.0 0.00 0.00 0.00 76 1015.4
20260504170746 74 182 8.0 20.0 0.00 0.00 0.00 75 1015.7
20260504170725 74 193 8.0 20.0 0.00 0.00 0.00 75 1015.7
20260504160234 72 173 9.0 21.0 0.00 0.00 0.00 77 1015.7
20260504150731 70 179 8.0 19.0 0.00 0.00 0.00 78 1016.0
20260504150231 70 219 9.0 19.0 0.00 0.00 0.00 78 1016.1
20260504141231 68 182 7.0 16.0 0.00 0.00 0.00 81 1016.0
20260504140946 67 190 7.0 17.0 0.00 0.00 0.00 82 1016.0
20260504140231 67 168 7.0 17.0 0.00 0.00 0.00 81 1016.0
20260504130731 63 163 6.0 14.0 0.00 0.00 0.00 86 1016.2
20260504130230 62 198 6.0 14.0 0.00 0.00 0.00 86 1016.2
20260504120209 59 213 5.0 14.0 0.00 0.00 0.00 90 1015.4
20260504110704 60 135 3.0 9.0 0.00 0.00 0.00 88 1015.5
20260504110427 60 148 3.0 9.0 0.00 0.00 0.00 87 1015.7
20260504100200 61 215 5.0 14.0 0.00 0.00 0.00 85 1016.1
20260504081640 62 159 6.0 16.0 0.00 0.00 0.00 82 1016.2
20260504081138 62 165 6.0 16.0 0.00 0.00 0.00 82 1016.2
20260504080638 62 175 6.0 14.0 0.00 0.00 0.00 81 1016.5
20260504080405 62 185 6.0 14.0 0.00 0.00 0.00 81 1016.5
20260504070132 63 185 6.0 11.0 0.00 0.00 0.00 78 1017.6
20260504050603 64 182 6.0 12.0 0.00 0.00 0.00 70 1018.7
20260504045603 63 151 5.0 13.0 0.00 0.00 0.00 71 1018.7
20260504045102 63 143 4.0 11.0 0.00 0.00 0.00 70 1018.6
20260504044602 62 156 3.0 8.0 0.00 0.00 0.00 70 1018.7
20260504044103 62 165 3.0 7.0 0.00 0.00 0.00 70 1018.7
20260504043602 62 153 3.0 7.0 0.00 0.00 0.00 70 1018.8
20260504043103 62 178 3.0 7.0 0.00 0.00 0.00 70 1018.9
20260504042826 62 160 3.0 8.0 0.00 0.00 0.00 71 1018.9
20260504042102 62 164 3.0 8.0 0.00 0.00 0.00 71 1018.9
20260504041603 61 149 1.0 5.0 0.00 0.00 0.00 71 1018.9
20260504041102 61 164 0.0 4.0 0.00 0.00 0.00 72 1018.8
20260504040603 61 164 1.0 4.0 0.00 0.00 0.00 72 1018.9
20260504040324 61 164 1.0 4.0 0.00 0.00 0.00 71 1018.9
20260504035842 62 164 1.0 4.0 0.00 0.00 0.00 71 1018.9
20260504035548 62 164 1.0 4.0 0.00 0.00 0.00 71 1018.9
20260504034828 62 164 1.0 2.0 0.00 0.00 0.00 70 1019.0
20260504034102 63 164 1.0 2.0 0.00 0.00 0.00 70 1019.0
20260504033603 63 164 1.0 2.0 0.00 0.00 0.00 68 1019.0
20260504033102 64 164 1.0 2.0 0.00 0.00 0.00 67 1019.0